STARLINK-1245 (45215 NORAD) Tracking and Keplerian Element Data

This shows tracking and keplerian element data for the satellite.

Feedback or suggestion? Click here.




ElementValue
Catalog45215
NameSTARLINK-1245
Epoch Orbit2170
Epoch Day187.50002315
Epoch Year2020
RAAN333.5276
Inclination53.0009
Eccentricity0.0001335
Argument of Perigee112.4023
Mean Anonmoly202.3134
Mean Motion15.05599163
Decay Rate-0.00021694
L11 45215U 20012AP 20187.50002315 -.00021694 00000-0 -14735-2 0 9992
L22 45215 53.0009 333.5276 0001335 112.4023 202.3134 15.05599163 21709

Live tracking and technical data element details for STARLINK-1245 (NORAD 45215). STARLINK-1245 can be tracked NOW for your location showing map with azimuth and elevation plus other details from your city location.

Track the satellite on the map from your city or location and see movement details for azimuth, elevation, latitude, longitude, range, height, and movement on the map or in text.







IsCatalogInMostPopularTable: catalog: 45215, numindb: 25
Update: records affected: 1



GetName: 45215 STARLINK-1245

Hit Count: updated at: Mon, 06 Jul 2020 06:19:30 GMT